{"data":{"norad_id":68212,"intl_designator":"2026-053F","name":"STARLINK-37117","alt_names":[],"object_type":"PAYLOAD","status":"ACTIVE","operator":null,"country":"US","launch_date":"2026-03-17","launch_site_code":"AFWTR","launch_vehicle":null,"mission":null,"orbit_class":"UNKNOWN","rcs_meters":null,"size_class":null,"mass_kg":null,"dimensions":null,"purposes":["comms"],"wikipedia_slug":null,"has_3d_model":false,"image_url":null,"decayed_at":null,"tle_current":{"epoch":"2026-05-25T03:34:27.166656Z","epoch_age_seconds":62190,"freshness":"FRESH","line1":"1 68212U 26053F   26145.14892554  .00012022  00000+0  37404-3 0  9998","line2":"2 68212  97.2867  20.5678 0001733  91.3211 268.8230 15.33450039 11935","mean_motion":15.33450039,"eccentricity":0.0001733,"inclination_deg":97.2867,"raan_deg":20.5678,"arg_perigee_deg":91.3211,"mean_anomaly_deg":268.823,"bstar":0.00037404,"rev_number":1193,"period_min":93.905896075953,"perigee_km":464.34217482438,"apogee_km":466.71418917646,"semimajor_km":6843.6651820004,"source":"CELESTRAK","updated_at":"2026-05-25T13:38:21.878151Z"}}}